Satellite-Ground Cal/Val Site Overpasses Predictions

Prediction of Satellite NPP Overpassing Cal/Val Site: Antarctic Dome C

Ground Cal/Val Site Location: Latitude: -75.10, Longitude: 123.35; Satellite-Ground Site NADIR distance within 100 km.

Table of predicted overpasses for the next 14.0 days since TLE Epoch: 2/7/2020
Interval Starting Time Ending Time Minimum Distance Time Minimum Distance (km)
1 02/08/2020 14:35:41 02/08/2020 14:35:54 02/08/2020 14:35:48 87.37
2 02/09/2020 07:37:13 02/09/2020 07:37:41 02/09/2020 07:37:27 34.93
3 02/10/2020 07:18:27 02/10/2020 07:18:46 02/10/2020 07:18:37 75.11
4 02/12/2020 15:00:43 02/12/2020 15:01:07 02/12/2020 15:00:55 56.82
5 02/13/2020 14:41:54 02/13/2020 14:42:19 02/13/2020 14:42:06 52.20
6 02/14/2020 07:43:34 02/14/2020 07:43:55 02/14/2020 07:43:44 70.46
7 02/15/2020 07:24:42 02/15/2020 07:25:10 02/15/2020 07:24:56 37.48
8 02/17/2020 15:07:09 02/17/2020 15:07:18 02/17/2020 15:07:14 94.79
9 02/18/2020 14:48:09 02/18/2020 14:48:38 02/18/2020 14:48:24 16.51


NCC Satellite Cal/Val Overpasses Prediction Service
